Regional Weather Roundup
Issued by NWS Upton, NY

Current Version | Previous Version | Text Only | Print | Product List | Glossary Off
Versions: 1 2 3 4 5 6 7 8 9 10 11 12 13 14 15 16 17 18 19 20 21 22 23 24 25 26 27 28 29 30 31 32 33 34 35 36 37 38 39 40 41 42 43 44 45 46 47 48 49 50
000 ASUS41 KOKX 221718 RWROKX REGIONAL WEATHER ROUNDUP NATIONAL WEATHER SERVICE NEW YORK NY 100 PM EDT FRI MAY 22 2015 NOTE: "FAIR" INDICATES FEW OR NO CLOUDS BELOW 12,000 FEET WITH NO SIGNIFICANT WEATHER AND/OR OBSTRUCTIONS TO VISIBILITY. NYZ071-072-176-178-NJZ106-104-221800- NEW YORK CITY METRO AREA CITY SKY/WX TMP DP RH WIND PRES REMARKS CENTRAL PARK MOSUNNY 71 39 31 VRB6 29.93F LAGUARDIA APRT PTSUNNY 73 37 27 W17G25 29.91S KENNEDY INTL MOSUNNY 75 38 26 W17 29.92F NEWARK/LIBERTY MOSUNNY 75 39 27 W13G23 29.91F BRNX BOT. GARD N/A 72 39 30 NW9 29.91F TETERBORO MOSUNNY 74 39 28 W17G23 29.90F $$ NYZ177-179-078>081-221800- LONG ISLAND NEW YORK CITY SKY/WX TMP DP RH WIND PRES REMARKS FARMINGDALE MOSUNNY 72 40 31 NW14G20 29.91F ISLIP MOSUNNY 73 39 29 NW18G24 29.89S SHIRLEY SUNNY 73 39 29 NW17G28 29.90F WESTHAMPTON SUNNY 72 40 31 W20 29.90F MONTAUK POINT N/A 68 44 42 W9 29.88F $$ NYZ052-065-067-221800- HUDSON VALLEY CITY SKY/WX TMP DP RH WIND PRES REMARKS WHITE PLAINS MOSUNNY 69 41 36 W9G22 29.90F NEWBURGH PTSUNNY 68 43 40 NW21G32 29.92S MONTGOMERY PTSUNNY 68 41 37 NW9G20 29.91S POUGHKEEPSIE MOSUNNY 72 39 30 W15G23 29.88S ALBANY PTSUNNY 66 38 35 W17G25 29.90S $$ NJZ001-105-106-008-010-013-015-019>022-104-221800- NEW JERSEY CITY SKY/WX TMP DP RH WIND PRES REMARKS NEWARK/LIBERTY MOSUNNY 75 39 27 W13G23 29.91F TETERBORO MOSUNNY 74 39 28 W17G23 29.90F CALDWELL PTSUNNY 72 38 29 NW16 29.92S MORRISTOWN MOSUNNY 79 43 27 NW13G25 29.93S SOMERVILLE MOSUNNY 74 40 29 W10G24 29.92F SUSSEX PTSUNNY 68 40 35 NW8 29.95S ANDOVER N/A 68 41 37 N8 29.94S TRENTON SUNNY 72 40 31 NW15G25 29.95F MILLVILLE SUNNY 70 47 43 W15G23 30.03S ATLANTIC CITY SUNNY 72 43 35 W14G21 30.01S WRIGHTSTOWN MOSUNNY 72 42 34 NW14G20 29.95F TOMS RIVER MOSUNNY 72 43 35 NW14G23 29.97F BELMAR MOSUNNY 70 45 40 W16 29.95F $$ PAZ047>061-062-071-221800- EASTERN PENNSYLVANIA CITY SKY/WX TMP DP RH WIND PRES REMARKS PHILADELPHIA MOSUNNY 73 39 29 W22 30.00F ALLENTOWN MOSUNNY 72 43 35 NW13G29 29.97F SCRANTON MOSUNNY 68 40 35 NW10 29.96S $$ CTZ002-004>006-009-010-012-RIZ004-006-007-MAZ004-011-015-221800- SOUTHERN NEW ENGLAND IN CT CITY SKY/WX TMP DP RH WIND PRES REMARKS BRADLEY INTL MOSUNNY 72 38 29 W17G26 29.84S HARTFORD MOSUNNY 70 38 31 W13G23 29.85F DANBURY MOSUNNY 69 39 33 W16G26 29.90F WTRBRY/OXFORD NOT AVBL BRIDGEPORT MOSUNNY 73 41 31 W15G25 29.88F MERIDEN MOSUNNY 72 37 28 W13G22 29.86F NEW HAVEN MOSUNNY 69 45 41 W8 29.88F CHESTER FAIR 70 37 30 NW9G22 29.87S GROTON MOSUNNY 65 47 52 SW14 29.85F WILLIMANTIC PTSUNNY 71 36 27 NW10G22 29.84F IN RI CITY SKY/WX TMP DP RH WIND PRES REMARKS PROVIDENCE MOSUNNY 73 36 25 W20G25 29.82F BLOCK ISLAND SUNNY 64 45 48 W18G26 29.87S WESTERLY MOSUNNY 65 43 44 SW15G24 29.86S IN MA CITY SKY/WX TMP DP RH WIND PRES REMARKS BOSTON MOSUNNY 71 34 25 W13 29.79F WORCESTER MOSUNNY 69 35 28 W18G26 29.82F WESTFIELD MOSUNNY 72 38 29 W15 29.84S PROVINCETOWN SUNNY 64 39 39 N3 29.82F NANTUCKET SUNNY 57 50 77 SW15 29.85S $$ ANZ330-335-338-340-345-350-353-355-221800- COASTAL MARINE OBSERVATIONS STATION/POSITION TIME SKY/WX TEMP WIND PRES VSBY WAVE AIR SEA DIR/SP/G HT/PER (UTC) (F) (DEG/KT/KT) (MB) (MI) (FT/S) NY HARB ENTRANCE 1650 59 57 200/ 8/ 10 1013.6 1/ 8 4S FIRE IS 1603 54 N/A 2/ 3 20S FIRE ISLAND 1650 57 55 240/ 12/ 14 1013.7 2/ 4 GREAT SOUTH BAY 1615 61 64 250/ 16/ 19 N/A 23SW MTP 1650 56 55 250/ 14/ 17 1012.2 2/10 HUDSON CANYON NOT AVBL KINGS POINT 1600 67 55 350/ 7/ 12 1012.4 CENTRAL LI SOUND 1630 57 52 230/ 10/ 12 N/A EASTERN LI SOUND 1600 54 250/ 12/ 16 N/A ROBBINS REEF 1600 67 290/ 15/ 23 1012.2 $$ >>>>>>>>>>>>>>>>>>>>>>>>>>>> KEY <<<<<<<<<<<<<<<<<<<<<<<<<<< > < > SKY/WX - SKY CONDITION/PRESENT WEATHER < > TMP - TEMPERATURE IN FAHRENHEIT < > DP - DEWPOINT IN FAHRENHEIT < > RH - RELATIVE HUMIDITY IN PERCENT < > WIND - DIRECTION AND SPEED IN MPH < > PRES - MEAN SEA LEVEL PRESSURE IN INCHES OF HG < > WCI - WIND CHILL INDEX < > VSB - VISIBILITY IN MILES < > HX - HEAT INDEX < > TC - TEMPERATURE IN CELSIUS < > VRB - VARIABLE WIND DIRECTION < > < >>>>>>>>>>>>>>>>>>>>>>>>>>>> KEY <<<<<<<<<<<<<<<<<<<<<<<<<<<

USA.gov is the U.S. government's official web portal to all federal, state and local government web resources and services.